CUBEBEL-1 (BSUSAT-1) (43666 NORAD) Tracking and Keplerian Element Data

This shows tracking and keplerian element data for the satellite.

Feedback or suggestion? Click here.




ElementValue
Catalog43666
NameCUBEBEL-1 (BSUSAT-1)
Epoch Orbit22536
Epoch Day325.1917903
Epoch Year2022
RAAN352.2905
Inclination97.4082
Eccentricity0.0013469
Argument of Perigee134.4094
Mean Anonmoly293.9135
Mean Motion15.26428468
Decay Rate0.00011474
L11 43666U 18083E 22325.19179030 .00011474 00000+0 44193-3 0 9999
L22 43666 97.4082 352.2905 0013469 134.4094 293.9135 15.26428468225367



Live tracking and technical data element details for CUBEBEL-1 (BSUSAT-1) (NORAD 43666). CUBEBEL-1 (BSUSAT-1) can be tracked NOW for your location showing map with azimuth and elevation plus other details from your city location.







IsCatalogInMostPopularTable: catalog: 43666, numindb: 456
Update: records affected: 1



GetName: 43666 CUBEBEL-1 (BSUSAT-1)

Hit Count: updated at: Mon, 28 Nov 2022 03:52:10 GMT